Location: Mahannah Oil Field
(37.4664°N, 96.6003°W)
Time: 02:05:56
(UTC+00:00)

deb Explorer IX - Pass Details

Date: 30 January 2021
Orbit: 537 x 1102 km, 38.8° (Epoch: 25 February)

Event Time Altitude Azimuth Distance (km) Brightness Sun altitude
Rises 02:25:58 0° 285° (WNW) 3,642 ? -31.5°
Reaches altitude 10° 02:28:50 10° 281° (W) 2,608 ? -32.1°
Enters shadow 02:33:44 47° 245° (WSW) 1,092 ? -33.0°
Maximum altitude 02:34:51 55° 205° (SSW) 975 - -33.3°
Drops below altitude 10° 02:39:56 10° 129° (SE) 2,210 - -34.3°
Sets 02:42:12 0° 124° (SE) 3,044 - -34.7°
